Probability
0 0 0 0 0 0 0 0 0 0 0 1 2 5 12 22 33 40 43 47 47 44 46 52 52 49 48 50 51 50 48 46 40 34 29 26 22 15 11 9 9 12 14 14
0 0 0 0 0 0 0 0 0 0 0 1 2 4 8 16 25 34 42 47 48 48 50 53 51 47 48 53 54 53 50 47 41 35 31 28 23 15 10 9 8 9 12 14
0 0 0 0 0 0 0 0 0 0 0 1 2 3 4 9 17 27 39 49 52 54 56 57 54 50 52 55 55 54 53 50 44 39 36 33 26 16 11 8 7 8 12 15
0 0 0 0 0 0 0 0 0 0 0 0 1 2 2 6 15 26 38 47 53 56 57 59 57 54 53 53 53 52 52 51 47 41 38 35 27 17 10 8 7 8 11 13
0 0 0 0 0 0 0 0 0 0 0 0 0 0 0 5 14 25 35 43 49 53 54 54 53 49 48 48 49 49 49 50 46 41 37 30 21 13 8 6 7 7 7 7
0 0 0 0 0 0 0 0 0 0 0 0 0 0 1 5 13 22 31 39 45 49 51 50 46 43 42 42 45 47 47 46 43 37 32 24 15 9 6 6 6 5 4 4
0 0 0 0 0 0 0 0 0 0 0 0 0 0 2 6 12 19 27 35 40 45 50 49 45 42 42 42 44 46 46 42 37 31 25 19 12 8 5 5 4 4 3 3
0 0 0 0 0 0 0 0 0 0 0 0 0 1 5 9 12 16 22 29 34 38 44 46 44 44 43 43 45 44 42 37 32 26 21 17 12 8 5 3 3 2 1 1
0 0 0 0 0 0 0 0 0 0 0 0 0 2 6 10 12 14 19 24 28 30 35 39 41 41 39 39 41 40 35 30 26 22 17 13 11 8 5 3 2 1 1 0
0 0 0 0 0 0 0 0 0 0 0 0 0 1 5 9 12 14 17 21 24 27 33 36 35 33 30 31 33 33 28 24 20 16 12 8 7 7 5 2 1 0 0 0
0 0 0 0 0 0 0 0 0 0 0 0 0 0 3 7 11 13 17 20 23 29 33 33 29 27 26 26 27 27 25 21 17 12 8 4 4 4 4 2 1 0 0 0
0 0 0 0 0 0 0 0 0 0 0 0 0 0 3 7 12 15 19 23 26 28 28 25 24 24 25 25 24 24 24 20 15 12 8 6 5 5 5 3 1 0 0 0
0 0 0 0 0 0 0 0 0 0 0 0 0 0 3 8 14 19 25 30 32 28 23 19 18 19 21 22 21 21 20 17 13 11 11 9 9 8 8 5 2 1 0 0
0 0 0 0 0 0 0 0 0 0 0 0 0 1 5 10 17 24 31 38 39 32 23 18 16 16 16 16 15 15 15 12 9 10 11 11 10 9 7 5 3 2 1 1
0 0 0 0 0 0 0 0 0 0 0 0 1 3 7 13 21 28 34 40 41 35 28 23 20 17 14 12 11 10 10 8 7 8 8 8 8 7 6 5 4 3 3 3
0 0 0 0 0 1 1 1 1 1 1 1 4 7 11 17 24 29 33 38 39 35 30 26 22 18 14 11 10 8 6 4 5 6 6 7 8 7 6 6 6 5 5 5
0 0 0 0 0 2 2 2 2 3 4 5 9 13 19 24 26 27 29 34 37 34 27 21 17 14 12 11 10 9 6 4 4 6 6 7 8 7 6 6 6 6 6 6
0 0 0 0 0 1 3 2 2 5 8 12 17 23 28 30 30 28 29 32 33 29 21 15 13 12 11 10 10 10 8 7 6 5 6 6 7 7 6 6 6 6 5 4
0 0 0 0 0 1 2 2 3 7 13 19 26 31 32 34 35 32 28 28 27 23 18 15 14 14 12 9 9 10 9 8 7 6 6 7 7 7 7 6 6 5 4 3
0 0 1 0 0 1 3 4 5 8 14 20 27 30 30 32 33 29 25 25 25 23 20 17 15 14 10 6 6 8 8 7 7 7 7 8 9 8 7 6 5 4 3 3
0 0 0 0 0 2 6 8 7 8 13 18 20 22 24 25 25 24 23 25 25 22 18 15 13 10 6 2 2 4 5 5 5 6 6 7 8 8 7 6 4 3 3 3
0 0 0 0 0 2 7 10 8 9 15 19 18 18 21 22 21 21 23 24 22 17 13 12 11 9 4 1 0 1 3 3 3 4 4 4 5 5 5 4 3 3 3 3
0 0 0 1 1 3 7 9 9 13 19 22 21 20 22 21 19 20 20 19 16 13 10 10 9 7 4 1 0 1 2 3 3 3 2 2 2 2 2 2 2 2 3 3
0 0 1 2 4 6 8 11 15 20 24 25 24 23 22 19 17 17 17 14 13 11 9 8 7 5 3 1 0 0 1 2 2 1 1 1 1 1 1 1 1 1 1 2
0 0 1 2 4 7 11 15 20 24 26 27 25 22 18 15 13 13 12 11 9 9 8 7 6 4 3 1 0 0 1 1 1 0 0 0 0 0 0 0 0 0 0 1
0 0 0 1 2 5 10 16 20 23 24 26 25 20 15 12 10 9 9 8 8 7 7 6 6 5 2 1 0 0 0 1 0 0 0 0 0 0 0 0 0 0 0 0
Wind_Speed
2 3 5 8 8 7 5 6 9 10 8 2 5 6 9 12 13 13 12 12 12 12 10 10 11 11 11 10 11 11 10 9 7 5 4 4 4 3 3 4 6 6 6 6
0 6 11 8 6 6 7 8 9 9 6 1 4 4 5 8 13 15 15 14 13 10 9 10 10 10 11 12 11 10 10 10 9 6 5 3 3 3 4 4 5 7 7 7
9 8 6 8 8 8 8 7 7 6 5 4 3 3 2 2 5 8 10 10 12 14 14 14 13 12 11 12 12 11 10 9 8 7 4 3 2 2 2 3 4 6 7 8
7 10 7 7 9 8 8 8 6 5 1 3 2 1 5 3 2 7 10 9 10 10 9 12 12 12 13 12 10 10 10 9 8 8 7 7 5 5 5 4 4 5 7 7
8 7 9 9 11 9 9 8 4 2 1 2 3 2 7 2 3 6 10 11 10 10 10 10 11 12 10 10 9 9 8 8 8 8 8 7 5 4 3 3 5 6 5 6
9 7 7 10 10 8 7 2 5 6 6 1 3 3 6 4 7 8 8 10 10 9 8 7 7 8 7 8 8 8 8 7 7 7 7 8 7 6 5 5 5 5 4 5
7 9 7 5 5 5 3 5 4 5 5 5 4 2 8 7 5 8 9 9 8 8 8 7 8 8 8 9 9 8 8 7 7 7 7 7 8 7 8 6 6 5 4 4
5 8 7 6 8 7 5 10 9 5 4 5 3 3 6 5 1 2 6 7 7 7 7 8 8 8 8 9 9 8 8 7 7 7 7 6 6 5 5 6 5 6 5 5
7 8 7 7 7 10 6 5 10 8 3 1 4 3 5 3 3 3 4 6 7 7 7 7 7 7 7 8 8 8 8 6 6 6 5 4 5 5 5 5 5 4 4 4
8 5 7 6 2 3 9 8 7 6 5 3 4 3 4 3 2 3 3 4 4 6 7 7 7 6 6 6 6 6 6 6 5 5 5 4 4 4 4 4 4 4 4 4
8 5 7 2 5 8 4 4 6 6 6 7 3 6 6 7 6 6 6 6 8 8 9 7 6 5 5 5 5 6 5 5 4 5 4 3 3 3 2 2 3 3 3 3
8 7 5 7 7 8 8 8 9 7 5 5 4 7 3 4 5 7 7 6 7 9 8 7 6 5 5 5 5 5 5 5 5 5 4 3 2 2 2 2 2 2 2 2
8 7 2 6 6 1 4 5 7 7 6 5 5 6 1 3 5 5 8 8 8 8 7 6 5 5 4 4 4 4 5 5 4 4 4 3 2 2 2 1 1 1 2 1
9 6 8 10 9 5 4 4 5 8 5 5 7 6 3 4 7 6 7 8 8 8 8 6 5 4 4 3 3 4 4 4 4 4 4 3 3 2 2 2 2 1 2 2
7 5 4 5 5 4 4 5 5 6 9 9 8 9 10 8 8 7 7 9 10 8 7 7 5 4 3 3 2 2 3 3 4 4 4 3 3 2 2 2 2 2 3 3
4 5 2 1 1 1 1 3 4 5 6 6 7 4 4 6 6 7 6 9 9 7 7 7 5 4 4 3 2 2 3 3 4 4 4 3 3 3 3 3 3 4 4 4
2 4 4 1 2 3 2 4 4 4 5 9 9 8 10 9 9 8 8 8 8 7 7 6 5 4 3 3 4 3 3 3 4 4 4 4 4 4 4 4 5 5 5 5
4 4 4 2 2 3 8 4 3 4 2 4 7 10 13 12 9 6 6 8 7 6 6 5 4 3 3 3 3 3 4 4 5 4 4 4 5 5 5 5 5 5 5 5
5 6 4 4 2 3 4 2 1 4 1 2 10 13 13 13 10 6 4 7 7 5 4 4 4 4 4 4 4 5 5 4 5 4 4 4 5 6 6 6 6 5 6 6
4 6 5 4 3 5 6 4 1 7 1 1 9 14 14 10 7 4 6 8 8 7 5 5 5 6 6 4 5 6 5 5 5 4 5 5 5 6 7 6 6 5 6 6
3 3 4 4 3 5 4 4 2 5 6 3 7 10 9 6 7 8 8 8 8 8 7 7 7 6 5 4 6 7 6 5 4 5 6 7 6 7 7 6 6 6 7 7
2 2 2 4 3 5 4 3 3 4 3 7 7 7 8 10 12 11 9 9 9 8 8 8 7 6 5 5 7 8 6 5 5 7 8 8 7 6 7 7 7 6 7 8
1 2 3 4 5 3 1 1 2 5 7 7 7 8 12 13 12 11 9 9 8 9 9 8 8 8 6 6 6 8 5 5 7 8 8 8 9 8 7 7 7 6 5 6
2 1 2 2 1 2 4 5 5 6 7 8 10 10 11 13 12 12 10 9 8 8 8 7 8 9 7 6 6 6 5 7 9 9 8 8 9 9 9 7 6 6 5 5
2 1 2 2 1 4 5 5 6 7 9 11 10 9 10 14 14 12 11 9 8 8 7 7 7 8 7 5 6 5 5 7 9 9 9 8 8 8 9 9 7 6 5 3
1 3 4 4 3 2 1 2 6 9 9 10 12 10 8 10 12 12 10 9 8 8 8 8 8 8 6 6 6 5 5 7 9 9 7 6 6 6 7 8 9 14 11 13
Wind_Direction
205 123 216 225 209 210 253 282 287 284 283 206 184 177 178 178 172 173 178 180 184 190 189 175 170 172 169 169 171 172 171 171 165 164 166 166 176 180 176 184 182 182 186 182
352 240 229 226 239 246 260 274 282 294 301 150 174 178 174 173 176 178 179 184 183 179 179 173 167 174 176 176 177 175 176 175 176 177 174 169 163 178 182 187 191 190 193 188
201 235 220 223 246 252 263 248 257 271 312 11 84 10 336 245 169 167 174 177 175 180 181 178 175 181 183 181 178 178 179 178 178 169 155 145 135 141 167 188 197 199 198 194
234 245 246 233 239 227 258 251 251 267 350 308 83 241 287 260 177 168 174 177 177 178 182 181 178 180 184 183 176 174 176 176 175 169 171 174 182 192 198 193 194 201 201 197
238 225 223 230 233 221 232 254 258 260 126 12 8 119 280 296 194 191 182 180 176 175 182 182 179 179 179 174 169 170 170 177 179 181 181 183 194 200 194 189 191 200 203 200
250 258 220 221 233 223 224 303 12 43 67 5 260 156 269 247 210 194 188 180 172 174 179 173 170 164 165 165 167 168 169 180 183 185 187 190 194 193 192 198 200 202 207 208
279 274 253 227 225 255 163 96 30 359 11 256 266 167 248 256 216 187 177 174 170 169 165 159 161 162 159 164 169 171 173 182 185 187 193 197 198 195 198 201 201 200 203 208
219 266 248 217 191 195 185 141 156 185 217 275 324 222 262 282 247 159 160 159 156 163 161 164 163 159 161 166 169 170 175 181 184 190 198 199 198 196 198 199 198 200 202 207
194 244 262 230 194 162 166 171 165 139 175 249 289 291 322 13 54 93 128 140 156 165 165 162 156 155 157 162 167 169 174 179 184 190 191 193 194 195 201 201 200 203 204 207
179 237 273 246 178 182 166 163 109 121 157 235 280 260 225 224 184 131 134 153 162 161 156 156 155 157 159 159 158 159 163 173 177 175 179 183 192 199 201 194 194 198 205 206
178 200 285 312 185 196 164 145 128 136 155 159 224 264 221 199 183 167 173 169 167 159 152 155 153 153 146 142 148 153 159 162 166 169 172 176 186 190 180 181 191 195 200 200
176 156 237 254 241 193 169 174 149 155 204 161 167 260 264 165 167 165 161 151 147 146 142 142 139 131 132 138 145 151 159 168 171 168 162 168 175 167 162 180 195 185 187 196
160 144 182 315 325 294 174 176 164 145 135 152 163 249 306 111 126 148 141 133 125 124 121 121 120 123 132 136 140 147 158 168 163 153 150 154 154 150 158 175 170 148 149 154
134 132 165 195 213 200 195 198 166 136 153 185 198 202 216 167 142 138 131 126 123 123 121 118 113 111 113 121 135 142 148 151 144 138 145 152 153 152 157 150 142 138 129 123
115 146 182 201 200 176 193 200 182 171 178 176 200 187 199 186 158 140 129 122 119 118 115 114 114 112 116 110 109 119 125 138 138 139 147 154 157 140 122 120 124 118 109 107
75 129 143 264 237 143 226 237 198 184 167 154 148 194 184 136 123 117 124 128 128 130 126 123 121 123 126 124 127 115 114 127 132 140 139 132 125 119 114 110 105 97 91 85
56 106 104 248 309 64 284 249 214 196 174 157 176 188 150 140 141 147 146 138 134 140 138 133 133 136 135 139 143 140 134 125 124 126 125 122 119 110 105 101 98 95 92 87
120 102 118 135 82 202 240 250 173 155 156 155 145 149 152 144 131 123 132 130 131 141 142 136 131 127 126 129 134 126 116 118 120 119 115 118 117 110 101 98 94 85 81 83
133 128 114 121 159 260 287 315 100 117 8 124 138 139 131 124 99 83 117 126 129 135 137 127 122 116 108 112 115 109 106 104 112 120 120 120 122 116 108 102 98 94 91 82
72 103 113 123 148 214 246 277 248 104 66 207 143 147 148 137 127 168 152 128 120 115 109 107 104 94 97 105 106 99 95 97 102 112 115 111 112 113 110 106 100 92 90 87
35 54 122 145 176 249 268 291 57 129 205 173 145 147 149 147 150 146 133 117 115 113 107 102 97 88 90 98 101 99 94 94 93 98 99 96 96 102 105 100 93 93 91 89
150 145 171 142 166 243 312 22 127 180 149 134 131 133 121 115 117 121 120 116 113 108 104 102 98 88 79 84 96 96 93 94 89 89 92 91 88 94 97 96 92 92 97 95
103 179 186 176 198 243 349 106 142 129 124 124 124 129 126 121 123 121 116 114 111 109 106 103 102 92 78 75 90 99 98 100 96 89 89 89 83 74 79 88 93 89 88 92
323 17 97 74 36 41 58 71 66 81 109 117 124 131 131 126 127 121 117 113 109 104 102 101 101 95 83 74 78 93 100 103 101 97 92 89 86 77 66 64 68 80 83 91
263 31 62 76 87 46 40 67 86 88 97 106 109 116 128 126 124 123 120 118 114 108 100 99 100 99 93 85 82 89 100 108 105 101 97 93 89 91 83 71 57 62 51 78
230 165 157 195 198 150 191 109 99 100 107 118 118 104 104 115 118 117 117 115 113 109 106 102 98 98 95 92 85 81 93 108 111 108 104 104 102 98 99 98 78 54 62 67